{"data":{"norad_id":55480,"epoch":"2026-09-20T04:41:48.731424Z","epoch_age_seconds":126658,"freshness":"FRESH","line1":"1 55480U 23015AH  26263.19570291 -.00000276  00000+0 -51169-6 0  9990","line2":"2 55480  43.0040 321.0856 0001048 274.6768  85.3963 15.27575179200345","mean_motion":15.27575179,"eccentricity":0.0001048,"inclination_deg":43.004,"raan_deg":321.0856,"arg_perigee_deg":274.6768,"mean_anomaly_deg":85.3963,"bstar":-5.1169e-7,"rev_number":20034,"period_min":94.267046217828,"perigee_km":482.34447807022,"apogee_km":483.78258570171,"semimajor_km":6861.200531886,"source":"CELESTRAK","updated_at":"2026-09-21T09:00:33.234614Z"}}